Showing default

COSMOS 2091, 20736

Orbit data source: Space-Track

COSMOS 2091, 20736 is a payload satellite owned by UNKS (CIS) in LEO that was launched on Wed, 08 Aug 1990 UTC via a TSIKLON-3 launch vehicle from the Plesetsk Missile And Space Complex (PKMTR). Payload-class satellites include a variety of spacecraft equipped with specific instruments for various scientific and technological missions. These include communications satellites like Starlink; space stations such as the ISS; scientific satellites like the Hubble; Earth observation satellites from companies like Planet Labs, Umbra, and HawkEye 360; GPS; miniature CubeSats for education and research; and military/defense satellites.

Loading next visibility...
Identifier
20736, 1990-070B
Orbit
LEO
Country
Flag of CISCIS
Related business
Manufacturer
NPO PM
Mission
Defense Communications
Bus & Motor
STRELA-3, Unknown motor
Mass
225 kg wet, 225 kg dry
Launch date (UTC)
1990-08-08 (35 years ago)
Launch vehicle
TSIKLON-3
Launch site
Plesetsk Missile And Space Complex (PKMTR)
Object type
Payload
Rocket body
Debris
Shape & HBR
Cyl, 0.8 m
Radar Cross Section
1.257 m², Large (>1 m²)

Expand to show TLE details & history
Last TLE update: 16 hours ago

TLE from 16 hours ago
0 COSMOS 2091
1 20736U 90070B   25306.47507796  .00000043  00000-0  17942-3 0  9998
2 20736  82.5736 112.9204 0002697 260.5659 153.4292 12.62553490623708
Epoch: 2025-11-02T11:24Z
TLE epoch observation values (Epoch: 2025-11-02T11:24:06.735Z)
Latitude
53.44434°
Longitude
-90.02349°
Altitude
1,422.985 km
Speed
7.153 km/s
True Right ascension
08h 11m 58s
True Declination
53° 17' 37"
Sunlit
Object was in daylight at epoch
Visualization orbit readout
Latitude
Unknown
Longitude
Unknown
Altitude
Unknown
Speed
Unknown
Apparent Right ascension
Unknown
Apparent Declination
Unknown
Sunlit
N/A
Visualization observer readout
Local Sidereal Time
22:56:29
Azimuth
Unknown
Elevation
Unknown
Doppler factor
Unknown
Orbital elements
Apogee altitude
1,411.843 km
Perigee altitude
1,407.643 km
Semi-major axis
7,787.88 km
Eccentricity
0.00027
Inclination
82.5736°
RAAN
112.9204°
Arg. of periapsis
260.5659°
True anomaly
153.44302°
Mean anomaly
153.4292°
Eccentric anomaly
153.43611°
Mean motion
3.15802 °/min
Orbital period
114 mins
BSTAR
0.00017942
Loading maneuver chart data...
Computing Atmospheric mass density...
Loading historical data...
Loading historical data...
Loading historical data...
Loading historical data...
Loading historical data...
Loading historical data...
Loading historical data...

Documentation

Showing up to 5 results
|